Miamisburg, OH

6:34 PM EST on January 21, 2017 (GMT -0500)
Dayton Wright

Weather History for KMGY - November, 2013

Change the Weather History Date:

Thursday, November 21, 2013

  Actual Average (KFFO) Record (KFFO)
Temperature  
Mean Temperature 48 °F -  
Max Temperature 55 °F 48 °F 66 °F (1999)
Min Temperature 42 °F 31 °F 11 °F (2014)
Degree Days  
Heating Degree Days 16    
Moisture  
Dew Point 39 °F    
Average Humidity 67    
Maximum Humidity 86    
Minimum Humidity 50    
Precipitation  
Precipitation 0.05 in - - ()
Sea Level Pressure  
Sea Level Pressure 30.25 in    
Wind  
Wind Speed 7 mph (SSE)    
Max Wind Speed 13 mph    
Max Gust Speed -    
Visibility 10 miles    
Events Rain    
Averages and records for this station are not official NWS values.
T = Trace of Precipitation, MM = Missing Value Source: NWS Daily Summary

Daily Weather History Graph

Daily Weather History Graph

Search for Another Location

Airport or City:

Trip Planner

Search our weather history database for the weather conditions in past years. The results will help you decide how hot, cold, wet, or windy it might be!

Date:

Astronomy

Nov. 21, 2013 Rise Set
Actual Time 7:28 AM EST 5:17 PM EST
Civil Twilight 6:58 AM EST 5:46 PM EST
Nautical Twilight 6:25 AM EST 6:19 PM EST
Astronomical Twilight 5:53 AM EST 6:51 PM EST
Moon 8:53 PM EST 10:34 AM EST
Length of Visible Light 10h 47m
Length of Day
9h 49m
Waning Gibbous, 85% of the Moon is Illuminated
Nov 21
Waning Gibbous
Nov 25
Last Quarter
Dec 2
New
Dec 9
First Quarter
Dec 17
Full

Hourly Weather History & Observations

Time (EST) Temp. Windchill Dew Point Humidity Pressure Visibility Wind Dir Wind Speed Gust Speed Precip Events Conditions
12:53 AM 45.0 °F 40.1 °F 28.0 °F 52% 30.25 in 10.0 mi SE 9.2 mph - N/A   Clear
1:53 AM 46.0 °F 41.0 °F 28.0 °F 50% 30.25 in 10.0 mi SSE 10.4 mph - N/A   Overcast
2:53 AM 45.0 °F 41.2 °F 30.0 °F 56% 30.26 in 10.0 mi South 6.9 mph - N/A   Overcast
3:53 AM 44.1 °F 40.1 °F 33.1 °F 65% 30.26 in 10.0 mi SSE 6.9 mph - 0.00 in Rain Light Rain
4:53 AM 43.0 °F 41.3 °F 35.1 °F 74% 30.30 in 10.0 mi SSE 3.5 mph - 0.01 in Rain Light Rain
5:53 AM 42.1 °F 38.4 °F 35.1 °F 76% 30.30 in 10.0 mi SE 5.8 mph - 0.04 in Rain Light Rain
6:53 AM 42.1 °F 37.1 °F 34.0 °F 73% 30.29 in 10.0 mi East 8.1 mph - 0.00 in   Overcast
7:53 AM 43.0 °F 41.3 °F 33.1 °F 68% 30.32 in 10.0 mi ESE 3.5 mph - N/A   Overcast
8:53 AM 44.1 °F 42.5 °F 33.1 °F 65% 30.32 in 10.0 mi SE 3.5 mph - N/A   Mostly Cloudy
9:53 AM 46.9 °F - 32.0 °F 56% 30.32 in 10.0 mi SSE 10.4 mph - N/A   Mostly Cloudy
10:53 AM 50.0 °F - 35.1 °F 57% 30.32 in 10.0 mi South 10.4 mph - N/A   Clear
11:53 AM 52.0 °F - 37.9 °F 59% 30.30 in 10.0 mi South 9.2 mph - N/A   Clear
12:53 PM 53.1 °F - 41.0 °F 64% 30.27 in 10.0 mi SSW 10.4 mph - N/A   Partly Cloudy
1:08 PM 53.6 °F - 42.8 °F 67% 30.25 in 10.0 mi SSW 8.1 mph - N/A   Mostly Cloudy
1:53 PM 55.9 °F - 46.0 °F 69% 30.22 in 10.0 mi South 9.2 mph - N/A   Mostly Cloudy
2:23 PM 55.4 °F - 44.6 °F 67% 30.21 in 10.0 mi South 12.7 mph - N/A   Scattered Clouds
2:53 PM 54.0 °F - 43.0 °F 66% 30.21 in 10.0 mi South 9.2 mph - N/A   Scattered Clouds
3:53 PM 53.1 °F - 43.0 °F 69% 30.21 in 10.0 mi South 5.8 mph - N/A   Scattered Clouds
4:34 PM 53.6 °F - 42.8 °F 67% 30.21 in 10.0 mi South 5.8 mph - N/A   Overcast
4:53 PM 53.1 °F - 42.1 °F 66% 30.23 in 10.0 mi South 6.9 mph - N/A   Overcast
5:53 PM 52.0 °F - 43.0 °F 71% 30.24 in 10.0 mi South 4.6 mph - N/A   Overcast
6:11 PM 53.6 °F - 42.8 °F 67% 30.23 in 10.0 mi Calm Calm - N/A   Overcast
6:53 PM 53.1 °F - 42.1 °F 66% 30.25 in 10.0 mi Calm Calm - N/A   Overcast
7:53 PM 51.1 °F - 43.0 °F 74% 30.22 in 10.0 mi ESE 4.6 mph - N/A   Overcast
8:53 PM 52.0 °F - 43.0 °F 71% 30.22 in 10.0 mi SSE 5.8 mph - N/A   Overcast
9:53 PM 51.1 °F - 44.1 °F 77% 30.22 in 10.0 mi South 6.9 mph - N/A   Overcast
10:53 PM 52.0 °F - 45.0 °F 77% 30.20 in 10.0 mi South 8.1 mph - N/A   Overcast
11:53 PM 51.1 °F - 46.9 °F 86% 30.20 in 10.0 mi South 6.9 mph - N/A   Overcast